M I D A S
Marine Information and Data Acquisition System
Tripno 2276 of the Zeeleeuw from 2012-03-15 07:47:01 to 2012-03-15 15:21:42
Back to CruiseResearch ActivitiesStationsMapUnderway DataData graphs

EquipmentUnitsComments
TimeDGPSUTC
LatitudeDGPSDM.mWGS84
LongitudeDGPSDM.mWGS84
SpeedMeteo Stationm/sRelative wind speed
DirectionMeteo StationdegRelative wind direction
TemperatureMeteo Stationdeg CelciusAir temperature
PressureMeteo StationPaAtmospheric pressure
HumidityMeteo Station%Relative humidity
Missing or incorrect values are displayed as -999
Metereological data collected by the RV Zeeleeuw from 2012-03-15 06:55:46 to 2012-03-15 15:38:40
                                                                                    Next 1000 lines
Time Latitude Longitude Speed Direction Temperature Pressure Humidity
2012-03-15 06:55:55 51°13.634 2°56.02 0.1 283 4.2 102620 52
2012-03-15 06:56:01 51°13.634 2°56.019 0.1 324 4.2 102630 52
2012-03-15 06:56:06 51°13.634 2°56.019 -999 306 4.2 102630 52
2012-03-15 06:56:11 51°13.635 2°56.019 0.1 347 4.2 102630 52
2012-03-15 06:56:16 51°13.635 2°56.019 0.1 330 4.2 102630 52
2012-03-15 06:56:20 51°13.635 2°56.019 -999 336 4.2 102630 52
2012-03-15 06:56:25 51°13.635 2°56.019 -999 283 4.2 102630 52
2012-03-15 06:56:31 51°13.635 2°56.019 -999 335 4.2 102630 52
2012-03-15 06:56:36 51°13.635 2°56.018 -999 344 4.2 102630 52
2012-03-15 06:56:41 51°13.635 2°56.018 -999 327 4.2 102630 52
2012-03-15 06:56:46 51°13.635 2°56.018 1.1 280 4.2 102630 52
2012-03-15 06:56:51 51°13.635 2°56.018 1.3 334 4.2 102630 52
2012-03-15 06:56:56 51°13.635 2°56.019 0.2 333 4.2 102630 52
2012-03-15 06:57:00 51°13.635 2°56.019 1 337 4.2 102630 52
2012-03-15 06:57:05 51°13.636 2°56.019 0.4 332 4.2 102630 52
2012-03-15 06:57:11 51°13.636 2°56.019 0.2 340 4.2 102620 51
2012-03-15 06:57:15 51°13.636 2°56.019 0.1 342 4.2 102620 51
2012-03-15 06:57:21 51°13.635 2°56.019 0.1 334 4.2 102620 52
2012-03-15 06:57:26 51°13.636 2°56.019 -999 335 4.2 102620 52
2012-03-15 06:57:30 51°13.636 2°56.019 -999 334 4.2 102620 52
2012-03-15 06:57:36 51°13.636 2°56.019 -999 334 4.2 102620 52
2012-03-15 06:57:40 51°13.636 2°56.019 -999 326 4.2 102620 52
2012-03-15 06:57:46 51°13.636 2°56.019 0.1 332 4.2 102620 52
2012-03-15 06:57:51 51°13.636 2°56.019 0.1 332 4.2 102630 52
2012-03-15 06:57:56 51°13.636 2°56.019 0.1 283 4.2 102630 52
2012-03-15 06:58:01 51°13.636 2°56.019 0.3 329 4.2 102630 52
2012-03-15 06:58:06 51°13.635 2°56.019 0.5 284 4.2 102630 52
2012-03-15 06:58:11 51°13.635 2°56.019 0.4 329 4.2 102630 52
2012-03-15 06:58:16 51°13.635 2°56.018 0.4 333 4.2 102630 52
2012-03-15 06:58:20 51°13.635 2°56.019 0.6 332 4.2 102630 52
2012-03-15 06:58:25 51°13.635 2°56.019 0.3 334 4.2 102630 52
2012-03-15 06:58:31 51°13.635 2°56.018 0.1 332 4.2 102620 52
2012-03-15 06:58:36 51°13.635 2°56.018 0.1 283 4.2 102620 52
2012-03-15 06:58:40 51°13.635 2°56.018 0.1 326 4.2 102620 52
2012-03-15 06:58:46 51°13.635 2°56.018 0.1 331 4.2 102620 52
2012-03-15 06:58:51 51°13.635 2°56.018 0.1 331 4.2 102620 52
2012-03-15 06:58:56 51°13.635 2°56.019 -999 283 4.2 102620 52
2012-03-15 06:59:00 51°13.635 2°56.019 0.1 332 4.2 102630 52
2012-03-15 06:59:05 51°13.635 2°56.018 0.1 283 4.2 102630 52
2012-03-15 06:59:11 51°13.635 2°56.019 0.1 333 4.2 102620 52
2012-03-15 06:59:16 51°13.635 2°56.019 -999 283 4.2 102620 52
2012-03-15 06:59:21 51°13.636 2°56.019 0.1 330 4.2 102630 52
2012-03-15 06:59:25 51°13.636 2°56.019 0.1 283 4.2 102630 52
2012-03-15 06:59:31 51°13.636 2°56.019 0.1 333 4.2 102630 52
2012-03-15 06:59:36 51°13.636 2°56.019 0.1 329 4.2 102630 52
2012-03-15 06:59:41 51°13.636 2°56.018 0.1 330 4.2 102630 52
2012-03-15 06:59:46 51°13.636 2°56.018 -999 332 4.2 102630 52
2012-03-15 06:59:51 51°13.635 2°56.018 -999 330 4.2 102620 51
2012-03-15 06:59:56 51°13.635 2°56.018 -999 283 4.2 102620 51
2012-03-15 07:00:01 51°13.636 2°56.018 -999 332 4.2 102620 52
2012-03-15 07:00:06 51°13.635 2°56.018 -999 334 4.2 102620 52
2012-03-15 07:00:11 51°13.635 2°56.018 -999 334 4.2 102620 52
2012-03-15 07:00:15 51°13.635 2°56.018 -999 283 4.2 102620 52
2012-03-15 07:00:21 51°13.636 2°56.018 -999 332 4.2 102620 52
2012-03-15 07:00:26 51°13.636 2°56.018 -999 334 4.2 102620 52
2012-03-15 07:00:31 51°13.635 2°56.018 -999 329 4.3 102620 52
2012-03-15 07:00:36 51°13.636 2°56.018 -999 331 4.3 102620 52
2012-03-15 07:00:41 51°13.635 2°56.018 -999 332 4.3 102620 52
2012-03-15 07:00:46 51°13.636 2°56.018 -999 332 4.3 102620 52
2012-03-15 07:00:51 51°13.636 2°56.019 -999 335 4.3 102620 52
2012-03-15 07:00:56 51°13.636 2°56.019 -999 283 4.3 102620 52
2012-03-15 07:01:00 51°13.636 2°56.019 -999 333 4.3 102620 52
2012-03-15 07:01:06 51°13.636 2°56.019 0.1 327 4.3 102620 52
2012-03-15 07:01:10 51°13.636 2°56.019 0.1 333 4.3 102620 52
2012-03-15 07:01:15 51°13.636 2°56.019 -999 339 4.3 102620 52
2012-03-15 07:01:21 51°13.636 2°56.019 -999 348 4.3 102620 51
2012-03-15 07:01:26 51°13.636 2°56.018 -999 350 4.3 102620 51
2012-03-15 07:01:31 51°13.636 2°56.019 0.1 343 4.3 102630 52
2012-03-15 07:01:36 51°13.636 2°56.019 0.1 283 4.3 102630 52
2012-03-15 07:01:41 51°13.636 2°56.019 0.1 339 4.3 102620 52
2012-03-15 07:01:46 51°13.636 2°56.018 -999 283 4.3 102620 52
2012-03-15 07:01:50 51°13.636 2°56.018 0.1 339 4.3 102620 52
2012-03-15 07:01:55 51°13.636 2°56.019 1.1 330 4.3 102620 52
2012-03-15 07:02:01 51°13.636 2°56.019 0.8 333 4.3 102620 52
2012-03-15 07:02:06 51°13.636 2°56.019 0.2 330 4.3 102620 52
2012-03-15 07:02:11 51°13.636 2°56.019 0.1 331 4.3 102620 52
2012-03-15 07:02:16 51°13.636 2°56.019 0.6 278 4.3 102620 52
2012-03-15 07:02:21 51°13.636 2°56.019 0.3 335 4.3 102620 52
2012-03-15 07:02:26 51°13.636 2°56.019 0.3 283 4.3 102620 52
2012-03-15 07:02:31 51°13.636 2°56.019 0.1 336 4.3 102620 51
2012-03-15 07:02:36 51°13.636 2°56.019 0.1 283 4.3 102620 51
2012-03-15 07:02:40 51°13.636 2°56.019 0.1 329 4.3 102620 52
2012-03-15 07:02:46 51°13.637 2°56.019 0.1 338 4.3 102620 52
2012-03-15 07:02:51 51°13.637 2°56.02 0.1 335 4.3 102620 52
2012-03-15 07:02:56 51°13.636 2°56.02 0.6 282 4.3 102620 52
2012-03-15 07:03:00 51°13.636 2°56.02 0.6 330 4.3 102620 52
2012-03-15 07:03:05 51°13.636 2°56.02 0.4 330 4.3 102620 52
2012-03-15 07:03:11 51°13.636 2°56.02 0.5 329 4.3 102620 52
2012-03-15 07:03:16 51°13.636 2°56.019 0.8 334 4.3 102620 52
2012-03-15 07:03:21 51°13.636 2°56.019 0.9 336 4.3 102620 52
2012-03-15 07:03:26 51°13.636 2°56.019 0.4 282 4.3 102620 52
2012-03-15 07:03:31 51°13.636 2°56.02 0.2 331 4.3 102620 52
2012-03-15 07:03:36 51°13.636 2°56.019 0.1 283 4.3 102620 52
2012-03-15 07:03:40 51°13.636 2°56.02 0.1 330 4.3 102620 52
2012-03-15 07:03:45 51°13.636 2°56.02 0.7 287 4.3 102620 52
2012-03-15 07:03:50 51°13.636 2°56.019 0.6 340 4.3 102620 52
2012-03-15 07:03:56 51°13.636 2°56.019 0.5 287 4.3 102620 52
2012-03-15 07:04:01 51°13.636 2°56.019 0.1 330 4.3 102620 52
2012-03-15 07:04:06 51°13.636 2°56.019 0.1 283 4.3 102620 52
2012-03-15 07:04:10 51°13.636 2°56.019 -999 334 4.4 102620 51
2012-03-15 07:04:16 51°13.636 2°56.02 -999 331 4.4 102620 51
2012-03-15 07:04:21 51°13.636 2°56.02 -999 333 4.3 102620 52
2012-03-15 07:04:26 51°13.636 2°56.02 0.1 329 4.3 102620 52
2012-03-15 07:04:31 51°13.636 2°56.02 0.2 332 4.3 102620 52
2012-03-15 07:04:35 51°13.636 2°56.02 0.1 283 4.3 102620 52
2012-03-15 07:04:40 51°13.636 2°56.02 -999 334 4.4 102620 52
2012-03-15 07:04:46 51°13.636 2°56.02 0.1 283 4.4 102620 52
2012-03-15 07:04:51 51°13.636 2°56.02 0.1 338 4.4 102620 52
2012-03-15 07:04:56 51°13.636 2°56.02 -999 283 4.4 102620 52
2012-03-15 07:05:01 51°13.636 2°56.02 0.1 338 4.4 102620 52
2012-03-15 07:05:06 51°13.636 2°56.02 0.1 335 4.4 102620 52
2012-03-15 07:05:11 51°13.636 2°56.02 0.1 329 4.4 102620 51
2012-03-15 07:05:16 51°13.636 2°56.019 0.1 283 4.4 102620 51
2012-03-15 07:05:20 51°13.636 2°56.019 0.4 326 4.4 102620 52
2012-03-15 07:05:26 51°13.636 2°56.019 0.2 335 4.4 102620 52
2012-03-15 07:05:31 51°13.636 2°56.019 0.1 342 4.4 102620 51
2012-03-15 07:05:36 51°13.636 2°56.019 0.1 335 4.4 102620 51
2012-03-15 07:05:41 51°13.636 2°56.019 0.2 337 4.4 102620 52
2012-03-15 07:05:46 51°13.636 2°56.019 0.3 278 4.4 102620 52
2012-03-15 07:05:51 51°13.636 2°56.019 0.5 342 4.4 102620 52
2012-03-15 07:05:56 51°13.636 2°56.019 0.1 339 4.4 102620 52
2012-03-15 07:06:01 51°13.636 2°56.019 0.1 338 4.4 102620 52
2012-03-15 07:06:05 51°13.636 2°56.019 0.4 278 4.4 102620 52
2012-03-15 07:06:11 51°13.636 2°56.019 0.2 330 4.4 102620 52
2012-03-15 07:06:16 51°13.636 2°56.019 0.3 328 4.4 102620 52
2012-03-15 07:06:21 51°13.635 2°56.018 0.1 330 4.4 102620 52
2012-03-15 07:06:26 51°13.635 2°56.018 0.1 283 4.4 102620 52
2012-03-15 07:06:31 51°13.635 2°56.018 -999 335 4.4 102620 52
2012-03-15 07:06:36 51°13.636 2°56.019 -999 283 4.4 102620 52
2012-03-15 07:06:41 51°13.636 2°56.019 0.3 333 4.4 102630 52
2012-03-15 07:06:46 51°13.636 2°56.019 0.2 342 4.4 102630 52
2012-03-15 07:06:51 51°13.636 2°56.019 1.9 338 4.4 102620 52
2012-03-15 07:06:56 51°13.636 2°56.019 1.9 283 4.4 102620 52
2012-03-15 07:07:01 51°13.636 2°56.019 1.3 345 4.4 102620 52
2012-03-15 07:07:06 51°13.636 2°56.019 0.8 332 4.4 102620 52
2012-03-15 07:07:10 51°13.636 2°56.019 0.2 331 4.4 102620 51
2012-03-15 07:07:16 51°13.636 2°56.019 0.1 333 4.4 102620 51
2012-03-15 07:07:20 51°13.636 2°56.019 -999 342 4.4 102630 52
2012-03-15 07:07:26 51°13.636 2°56.019 -999 346 4.4 102630 52
2012-03-15 07:07:31 51°13.635 2°56.019 -999 333 4.4 102620 52
2012-03-15 07:07:35 51°13.635 2°56.019 0.1 311 4.4 102620 52
2012-03-15 07:07:41 51°13.635 2°56.019 0.1 334 4.4 102630 52
2012-03-15 07:07:46 51°13.635 2°56.019 0.1 283 4.4 102630 52
2012-03-15 07:07:51 51°13.636 2°56.02 -999 333 4.4 102620 51
2012-03-15 07:07:55 51°13.636 2°56.019 -999 283 4.4 102620 51
2012-03-15 07:08:00 51°13.636 2°56.019 -999 326 4.4 102620 52
2012-03-15 07:08:06 51°13.636 2°56.019 -999 283 4.4 102620 52
2012-03-15 07:08:11 51°13.635 2°56.019 -999 329 4.4 102620 52
2012-03-15 07:08:16 51°13.636 2°56.019 0.1 328 4.4 102620 52
2012-03-15 07:08:21 51°13.636 2°56.019 0.1 343 4.4 102630 52
2012-03-15 07:08:26 51°13.636 2°56.019 -999 334 4.4 102630 52
2012-03-15 07:08:31 51°13.636 2°56.02 -999 317 4.4 102620 52
2012-03-15 07:08:36 51°13.636 2°56.02 -999 307 4.4 102620 52
2012-03-15 07:08:41 51°13.636 2°56.02 -999 320 4.4 102630 52
2012-03-15 07:08:46 51°13.636 2°56.02 -999 326 4.4 102630 52
2012-03-15 07:08:51 51°13.636 2°56.02 -999 327 4.4 102630 52
2012-03-15 07:08:56 51°13.636 2°56.02 -999 331 4.4 102630 52
2012-03-15 07:09:00 51°13.636 2°56.021 -999 331 4.4 102620 52
2012-03-15 07:09:05 51°13.636 2°56.02 -999 328 4.4 102620 52
2012-03-15 07:09:10 51°13.636 2°56.021 -999 332 4.4 102630 52
2012-03-15 07:09:16 51°13.636 2°56.021 -999 283 4.4 102630 52
2012-03-15 07:09:21 51°13.636 2°56.021 -999 335 4.4 102620 52
2012-03-15 07:09:26 51°13.636 2°56.021 0.1 283 4.4 102620 52
2012-03-15 07:09:31 51°13.636 2°56.021 0.1 324 4.4 102620 52
2012-03-15 07:09:36 51°13.636 2°56.021 0.1 287 4.4 102620 52
2012-03-15 07:09:41 51°13.636 2°56.021 0.5 334 4.4 102630 51
2012-03-15 07:09:46 51°13.636 2°56.021 0.5 330 4.4 102630 51
2012-03-15 07:09:51 51°13.636 2°56.021 0.2 333 4.4 102620 52
2012-03-15 07:09:56 51°13.636 2°56.02 0.6 333 4.4 102620 52
2012-03-15 07:10:01 51°13.636 2°56.02 0.3 327 4.4 102620 52
2012-03-15 07:10:05 51°13.636 2°56.02 0.1 283 4.4 102620 52
2012-03-15 07:10:11 51°13.636 2°56.02 0.1 327 4.4 102630 52
2012-03-15 07:10:16 51°13.636 2°56.021 0.1 283 4.4 102630 52
2012-03-15 07:10:21 51°13.636 2°56.02 -999 329 4.4 102630 52
2012-03-15 07:10:26 51°13.635 2°56.02 -999 329 4.4 102630 52
2012-03-15 07:10:30 51°13.636 2°56.02 -999 328 4.4 102620 51
2012-03-15 07:10:36 51°13.636 2°56.02 -999 330 4.4 102620 51
2012-03-15 07:10:40 51°13.636 2°56.02 0.3 329 4.4 102630 52
2012-03-15 07:10:46 51°13.635 2°56.019 0.6 280 4.4 102630 52
2012-03-15 07:10:51 51°13.635 2°56.019 0.2 328 4.4 102620 52
2012-03-15 07:10:56 51°13.635 2°56.019 0.1 324 4.4 102620 52
2012-03-15 07:11:01 51°13.636 2°56.02 0.9 331 4.4 102620 52
2012-03-15 07:11:06 51°13.636 2°56.02 0.5 332 4.4 102620 52
2012-03-15 07:11:11 51°13.636 2°56.02 0.2 335 4.4 102620 52
2012-03-15 07:11:16 51°13.636 2°56.019 0.1 283 4.4 102620 52
2012-03-15 07:11:20 51°13.636 2°56.019 0.4 336 4.4 102620 53
2012-03-15 07:11:25 51°13.636 2°56.019 0.1 324 4.4 102620 53
2012-03-15 07:11:31 51°13.636 2°56.019 0.1 327 4.4 102620 52
2012-03-15 07:11:36 51°13.636 2°56.02 0.1 282 4.4 102620 52
2012-03-15 07:11:41 51°13.636 2°56.02 0.7 325 4.4 102620 52
2012-03-15 07:11:46 51°13.636 2°56.019 0.2 329 4.4 102620 52
2012-03-15 07:11:51 51°13.635 2°56.019 0.1 338 4.4 102620 52
2012-03-15 07:11:56 51°13.636 2°56.019 0.1 347 4.4 102620 52
2012-03-15 07:12:00 51°13.636 2°56.019 -999 346 4.4 102620 52
2012-03-15 07:12:05 51°13.636 2°56.019 -999 346 4.4 102620 52
2012-03-15 07:12:10 51°13.636 2°56.02 -999 335 4.4 102620 52
2012-03-15 07:12:16 51°13.636 2°56.02 -999 331 4.4 102620 52
2012-03-15 07:12:21 51°13.635 2°56.02 0.1 322 4.4 102620 52
2012-03-15 07:12:26 51°13.636 2°56.02 0.1 283 4.4 102620 52
2012-03-15 07:12:31 51°13.636 2°56.02 0.8 338 4.4 102620 52
2012-03-15 07:12:36 51°13.635 2°56.02 0.6 284 4.4 102620 52
2012-03-15 07:12:41 51°13.635 2°56.02 0.8 328 4.4 102620 52
2012-03-15 07:12:45 51°13.635 2°56.02 1.1 280 4.4 102620 52
2012-03-15 07:12:51 51°13.636 2°56.02 1.6 335 4.4 102620 52
2012-03-15 07:12:56 51°13.636 2°56.02 0.9 329 4.4 102620 52
2012-03-15 07:13:01 51°13.635 2°56.02 0.5 330 4.4 102620 51
2012-03-15 07:13:06 51°13.635 2°56.02 0.3 327 4.4 102620 51
2012-03-15 07:13:10 51°13.635 2°56.02 1.9 332 4.4 102620 50
2012-03-15 07:13:16 51°13.635 2°56.02 0.4 332 4.4 102620 50
2012-03-15 07:13:21 51°13.635 2°56.02 0.2 325 4.4 102620 52
2012-03-15 07:13:26 51°13.635 2°56.02 0.4 283 4.4 102620 52
2012-03-15 07:13:30 51°13.635 2°56.02 0.4 336 4.4 102620 51
2012-03-15 07:13:35 51°13.635 2°56.02 0.1 283 4.4 102620 51
2012-03-15 07:13:40 51°13.635 2°56.02 0.1 335 4.4 102620 52
2012-03-15 07:13:46 51°13.635 2°56.02 1 284 4.4 102620 52
2012-03-15 07:13:51 51°13.635 2°56.02 0.6 332 4.4 102620 52
2012-03-15 07:13:56 51°13.635 2°56.019 0.2 287 4.4 102620 52
2012-03-15 07:14:01 51°13.635 2°56.019 0.1 339 4.4 102620 51
2012-03-15 07:14:05 51°13.635 2°56.019 0.1 332 4.4 102620 51
2012-03-15 07:14:10 51°13.635 2°56.019 1.5 333 4.4 102620 52
2012-03-15 07:14:16 51°13.635 2°56.019 1.6 279 4.4 102620 52
2012-03-15 07:14:21 51°13.635 2°56.019 1 336 4.4 102620 52
2012-03-15 07:14:26 51°13.635 2°56.019 0.6 338 4.4 102620 52
2012-03-15 07:14:31 51°13.635 2°56.019 0.4 337 4.4 102620 51
2012-03-15 07:14:36 51°13.635 2°56.019 0.1 325 4.4 102620 51
2012-03-15 07:14:40 51°13.635 2°56.019 0.3 330 4.4 102620 52
2012-03-15 07:14:46 51°13.636 2°56.019 1 281 4.4 102620 52
2012-03-15 07:14:51 51°13.635 2°56.019 0.3 329 4.4 102620 52
2012-03-15 07:14:56 51°13.635 2°56.019 0.3 344 4.4 102620 52
2012-03-15 07:15:01 51°13.635 2°56.019 0.3 341 4.4 102620 52
2012-03-15 07:15:06 51°13.635 2°56.019 0.1 330 4.4 102620 52
2012-03-15 07:15:10 51°13.635 2°56.019 0.1 329 4.4 102620 52
2012-03-15 07:15:15 51°13.635 2°56.019 -999 329 4.4 102620 52
2012-03-15 07:15:21 51°13.635 2°56.019 1.8 328 4.4 102620 52
2012-03-15 07:15:26 51°13.635 2°56.019 1 279 4.4 102620 52
2012-03-15 07:15:31 51°13.635 2°56.019 0.1 334 4.4 102620 52
2012-03-15 07:15:36 51°13.635 2°56.02 0.1 283 4.4 102620 52
2012-03-15 07:15:41 51°13.635 2°56.02 -999 344 4.4 102620 52
2012-03-15 07:15:46 51°13.635 2°56.02 -999 337 4.4 102620 52
2012-03-15 07:15:51 51°13.635 2°56.02 0.1 328 4.4 102620 51
2012-03-15 07:15:56 51°13.635 2°56.02 1.4 284 4.4 102620 51
2012-03-15 07:16:01 51°13.635 2°56.02 0.2 336 4.4 102620 52
2012-03-15 07:16:06 51°13.635 2°56.02 0.1 283 4.4 102620 52
2012-03-15 07:16:11 51°13.635 2°56.02 1.2 332 4.5 102620 52
2012-03-15 07:16:15 51°13.635 2°56.021 1.3 345 4.5 102620 52
2012-03-15 07:16:21 51°13.635 2°56.02 1.3 330 4.4 102620 52
2012-03-15 07:16:26 51°13.635 2°56.02 1.4 333 4.4 102620 52
2012-03-15 07:16:31 51°13.635 2°56.02 0.3 337 4.4 102630 52
2012-03-15 07:16:36 51°13.635 2°56.02 0.1 338 4.4 102630 52
2012-03-15 07:16:41 51°13.635 2°56.02 0.1 331 4.4 102620 52
2012-03-15 07:16:45 51°13.635 2°56.02 1.8 280 4.4 102620 52
2012-03-15 07:16:50 51°13.635 2°56.02 2.2 330 4.5 102620 52
2012-03-15 07:16:56 51°13.635 2°56.02 1.2 333 4.5 102620 52
2012-03-15 07:17:01 51°13.635 2°56.02 1.3 334 4.4 102620 52
2012-03-15 07:17:06 51°13.635 2°56.02 1 279 4.4 102620 52
2012-03-15 07:17:11 51°13.635 2°56.02 1.5 327 4.4 102620 51
2012-03-15 07:17:16 51°13.635 2°56.02 0.9 332 4.4 102620 51
2012-03-15 07:17:21 51°13.635 2°56.02 1.2 334 4.4 102620 51
2012-03-15 07:17:26 51°13.636 2°56.02 1 335 4.4 102620 51
2012-03-15 07:17:31 51°13.635 2°56.02 0.9 331 4.5 102620 51
2012-03-15 07:17:36 51°13.635 2°56.02 0.7 334 4.5 102620 51
2012-03-15 07:17:41 51°13.635 2°56.02 0.5 336 4.4 102620 52
2012-03-15 07:17:46 51°13.636 2°56.02 0.2 278 4.4 102620 52
2012-03-15 07:17:50 51°13.635 2°56.02 0.3 338 4.4 102620 52
2012-03-15 07:17:56 51°13.636 2°56.02 0.5 329 4.4 102620 52
2012-03-15 07:18:01 51°13.635 2°56.02 0.2 344 4.5 102620 52
2012-03-15 07:18:06 51°13.636 2°56.02 0.8 341 4.5 102620 52
2012-03-15 07:18:11 51°13.635 2°56.02 0.9 339 4.5 102620 52
2012-03-15 07:18:16 51°13.635 2°56.02 0.5 339 4.5 102620 52
2012-03-15 07:18:20 51°13.636 2°56.02 0.2 341 4.5 102620 52
2012-03-15 07:18:26 51°13.636 2°56.02 0.1 333 4.5 102620 52
2012-03-15 07:18:31 51°13.635 2°56.02 0.1 324 4.4 102630 51
2012-03-15 07:18:36 51°13.636 2°56.02 0.1 283 4.4 102630 51
2012-03-15 07:18:40 51°13.636 2°56.02 0.6 330 4.4 102620 52
2012-03-15 07:18:46 51°13.635 2°56.019 1.1 283 4.4 102620 52
2012-03-15 07:18:51 51°13.635 2°56.019 0.7 335 4.5 102620 52
2012-03-15 07:18:55 51°13.635 2°56.019 0.7 334 4.5 102620 52
2012-03-15 07:19:00 51°13.636 2°56.02 0.7 332 4.5 102620 51
2012-03-15 07:19:05 51°13.636 2°56.02 0.6 284 4.5 102620 51
2012-03-15 07:19:11 51°13.636 2°56.02 1 335 4.5 102620 51
2012-03-15 07:19:16 51°13.636 2°56.02 1.1 282 4.5 102620 51
2012-03-15 07:19:21 51°13.636 2°56.02 1.5 333 4.5 102620 51
2012-03-15 07:19:26 51°13.636 2°56.02 0.8 287 4.5 102620 51
2012-03-15 07:19:31 51°13.636 2°56.02 1.1 332 4.5 102620 53
2012-03-15 07:19:36 51°13.636 2°56.02 0.6 331 4.5 102620 53
2012-03-15 07:19:41 51°13.636 2°56.02 0.2 331 4.5 102630 52
2012-03-15 07:19:46 51°13.636 2°56.02 0.1 331 4.5 102630 52
2012-03-15 07:19:51 51°13.636 2°56.02 0.1 330 4.4 102620 51
2012-03-15 07:19:56 51°13.636 2°56.02 0.1 283 4.4 102620 51
2012-03-15 07:20:01 51°13.636 2°56.02 0.6 337 4.5 102630 52
2012-03-15 07:20:05 51°13.636 2°56.02 1.2 334 4.5 102630 52
2012-03-15 07:20:11 51°13.636 2°56.02 2 337 4.5 102620 52
2012-03-15 07:20:16 51°13.636 2°56.02 1.1 280 4.5 102620 52
2012-03-15 07:20:21 51°13.636 2°56.02 0.4 341 4.4 102620 52
2012-03-15 07:20:26 51°13.636 2°56.02 0.2 282 4.4 102620 52
2012-03-15 07:20:31 51°13.636 2°56.02 0.1 331 4.5 102620 52
2012-03-15 07:20:36 51°13.636 2°56.02 -999 283 4.5 102620 52
2012-03-15 07:20:41 51°13.636 2°56.02 0.1 325 4.5 102630 51
2012-03-15 07:20:46 51°13.636 2°56.02 0.1 330 4.5 102630 51
2012-03-15 07:20:51 51°13.636 2°56.02 0.1 332 4.4 102620 51
2012-03-15 07:20:56 51°13.636 2°56.019 -999 283 4.4 102620 51
2012-03-15 07:21:01 51°13.636 2°56.019 -999 338 4.5 102620 52
2012-03-15 07:21:06 51°13.636 2°56.02 -999 283 4.5 102620 52
2012-03-15 07:21:11 51°13.636 2°56.02 0.1 335 4.5 102620 51
2012-03-15 07:21:15 51°13.636 2°56.02 0.1 283 4.5 102620 51
2012-03-15 07:21:21 51°13.635 2°56.019 0.1 338 4.5 102630 52
2012-03-15 07:21:26 51°13.636 2°56.02 0.4 281 4.5 102630 52
2012-03-15 07:21:31 51°13.636 2°56.02 0.6 341 4.5 102620 52
2012-03-15 07:21:36 51°13.636 2°56.02 0.1 342 4.5 102620 52
2012-03-15 07:21:40 51°13.636 2°56.02 0.1 338 4.5 102620 51
2012-03-15 07:21:45 51°13.636 2°56.02 0.1 284 4.5 102620 51
2012-03-15 07:21:50 51°13.636 2°56.02 0.1 332 4.5 102620 51
2012-03-15 07:21:55 51°13.636 2°56.019 0.1 331 4.5 102620 51
2012-03-15 07:22:01 51°13.636 2°56.02 0.7 335 4.5 102620 51
2012-03-15 07:22:06 51°13.636 2°56.02 0.8 279 4.5 102620 51
2012-03-15 07:22:11 51°13.635 2°56.019 1 334 4.5 102620 51
2012-03-15 07:22:16 51°13.635 2°56.019 1.1 287 4.5 102620 51
2012-03-15 07:22:21 51°13.636 2°56.02 0.1 338 4.5 102630 51
2012-03-15 07:22:26 51°13.636 2°56.019 0.3 334 4.5 102630 51
2012-03-15 07:22:31 51°13.636 2°56.019 1.2 340 4.5 102630 51
2012-03-15 07:22:36 51°13.635 2°56.019 0.9 284 4.5 102630 51
2012-03-15 07:22:41 51°13.636 2°56.019 0.2 329 4.5 102620 52
2012-03-15 07:22:46 51°13.636 2°56.02 0.5 334 4.5 102620 52
2012-03-15 07:22:50 51°13.636 2°56.02 0.2 332 4.5 102620 51
2012-03-15 07:22:56 51°13.636 2°56.02 0.1 283 4.5 102620 51
2012-03-15 07:23:01 51°13.636 2°56.019 0.1 336 4.5 102620 51
2012-03-15 07:23:06 51°13.636 2°56.019 0.1 342 4.5 102620 51
2012-03-15 07:23:11 51°13.635 2°56.019 0.6 341 4.5 102620 52
2012-03-15 07:23:16 51°13.635 2°56.019 0.3 283 4.5 102620 52
2012-03-15 07:23:21 51°13.635 2°56.019 0.7 336 4.5 102620 52
2012-03-15 07:23:26 51°13.636 2°56.019 0.8 279 4.5 102620 52
2012-03-15 07:23:31 51°13.635 2°56.019 1.3 337 4.5 102620 52
2012-03-15 07:23:36 51°13.635 2°56.019 0.2 325 4.5 102620 52
2012-03-15 07:23:41 51°13.635 2°56.019 0.1 326 4.5 102620 51
2012-03-15 07:23:46 51°13.635 2°56.019 0.1 283 4.5 102620 51
2012-03-15 07:23:50 51°13.636 2°56.019 -999 326 4.5 102620 51
2012-03-15 07:23:55 51°13.636 2°56.019 -999 337 4.5 102620 51
2012-03-15 07:24:01 51°13.636 2°56.019 0.3 337 4.5 102620 51
2012-03-15 07:24:06 51°13.636 2°56.02 0.4 279 4.5 102620 51
2012-03-15 07:24:11 51°13.635 2°56.019 0.1 333 4.5 102620 52
2012-03-15 07:24:16 51°13.636 2°56.019 0.1 334 4.5 102620 52
2012-03-15 07:24:21 51°13.636 2°56.019 0.1 338 4.5 102620 51
2012-03-15 07:24:26 51°13.636 2°56.02 0.1 343 4.5 102620 51
2012-03-15 07:24:31 51°13.636 2°56.02 0.2 338 4.5 102620 51
2012-03-15 07:24:36 51°13.635 2°56.019 0.1 278 4.5 102620 51
2012-03-15 07:24:41 51°13.636 2°56.019 0.1 336 4.5 102620 51
2012-03-15 07:24:46 51°13.636 2°56.019 0.1 335 4.5 102620 51
2012-03-15 07:24:50 51°13.636 2°56.019 0.1 335 4.5 102620 52
2012-03-15 07:24:55 51°13.636 2°56.019 -999 283 4.5 102620 52
2012-03-15 07:25:01 51°13.635 2°56.019 0.1 341 4.5 102620 52
2012-03-15 07:25:06 51°13.635 2°56.019 0.1 342 4.5 102620 52
2012-03-15 07:25:11 51°13.635 2°56.019 0.1 343 4.5 102620 51
2012-03-15 07:25:16 51°13.635 2°56.019 -999 283 4.5 102620 51
2012-03-15 07:25:21 51°13.636 2°56.019 -999 329 4.5 102620 51
2012-03-15 07:25:26 51°13.635 2°56.019 -999 328 4.5 102620 51
2012-03-15 07:25:31 51°13.635 2°56.019 0.1 330 4.5 102630 52
2012-03-15 07:25:36 51°13.635 2°56.019 1.1 330 4.5 102630 52
2012-03-15 07:25:40 51°13.635 2°56.019 0.3 338 4.5 102630 52
2012-03-15 07:25:46 51°13.635 2°56.019 0.2 283 4.5 102630 52
2012-03-15 07:25:51 51°13.635 2°56.019 0.1 339 4.5 102620 51
2012-03-15 07:25:56 51°13.635 2°56.019 -999 334 4.5 102620 51
2012-03-15 07:26:00 51°13.635 2°56.019 -999 328 4.5 102620 51
2012-03-15 07:26:05 51°13.635 2°56.019 0.1 343 4.5 102620 51
2012-03-15 07:26:10 51°13.635 2°56.019 0.2 342 4.5 102620 52
2012-03-15 07:26:16 51°13.635 2°56.019 0.1 342 4.5 102620 52
2012-03-15 07:26:21 51°13.635 2°56.019 -999 333 4.6 102630 52
2012-03-15 07:26:26 51°13.635 2°56.019 -999 283 4.6 102630 52
2012-03-15 07:26:31 51°13.635 2°56.019 1.1 338 4.6 102620 51
2012-03-15 07:26:36 51°13.635 2°56.019 0.5 332 4.6 102620 51
2012-03-15 07:26:41 51°13.635 2°56.019 0.6 332 4.6 102630 52
2012-03-15 07:26:46 51°13.635 2°56.019 0.2 283 4.6 102630 52
2012-03-15 07:26:51 51°13.635 2°56.019 0.1 331 4.6 102630 51
2012-03-15 07:26:56 51°13.635 2°56.019 -999 282 4.6 102630 51
2012-03-15 07:27:01 51°13.635 2°56.019 -999 342 4.6 102620 51
2012-03-15 07:27:06 51°13.635 2°56.019 0.1 340 4.6 102620 51
2012-03-15 07:27:11 51°13.635 2°56.019 0.1 340 4.6 102630 52
2012-03-15 07:27:16 51°13.635 2°56.019 0.1 283 4.6 102630 52
2012-03-15 07:27:21 51°13.634 2°56.019 0.4 340 4.6 102630 52
2012-03-15 07:27:26 51°13.635 2°56.019 0.2 283 4.6 102630 52
2012-03-15 07:27:31 51°13.635 2°56.019 0.1 341 4.6 102630 53
2012-03-15 07:27:36 51°13.635 2°56.019 0.1 283 4.6 102630 53
2012-03-15 07:27:41 51°13.634 2°56.019 0.1 329 4.6 102630 52
2012-03-15 07:27:46 51°13.635 2°56.019 0.7 336 4.6 102630 52
2012-03-15 07:27:51 51°13.635 2°56.019 0.5 335 4.6 102630 51
2012-03-15 07:27:56 51°13.635 2°56.019 0.2 283 4.6 102630 51
2012-03-15 07:28:01 51°13.634 2°56.019 0.1 343 4.6 102630 51
2012-03-15 07:28:06 51°13.635 2°56.019 0.5 284 4.6 102630 51
2012-03-15 07:28:11 51°13.635 2°56.019 0.1 345 4.6 102630 51
2012-03-15 07:28:16 51°13.635 2°56.019 0.1 335 4.6 102630 51
2012-03-15 07:28:21 51°13.635 2°56.019 -999 329 4.6 102630 51
2012-03-15 07:28:26 51°13.635 2°56.019 0.1 283 4.6 102630 51
2012-03-15 07:28:31 51°13.635 2°56.019 0.1 330 4.6 102630 51
2012-03-15 07:28:36 51°13.635 2°56.019 -999 330 4.6 102630 51
2012-03-15 07:28:41 51°13.635 2°56.019 -999 330 4.6 102630 51
2012-03-15 07:28:46 51°13.635 2°56.019 -999 283 4.6 102630 51
2012-03-15 07:28:51 51°13.635 2°56.019 0.9 335 4.6 102630 51
2012-03-15 07:28:56 51°13.635 2°56.019 0.6 285 4.6 102630 51
2012-03-15 07:29:01 51°13.635 2°56.019 0.2 347 4.6 102630 52
2012-03-15 07:29:06 51°13.635 2°56.019 0.6 283 4.6 102630 52
2012-03-15 07:29:11 51°13.635 2°56.019 0.9 342 4.6 102630 51
2012-03-15 07:29:16 51°13.635 2°56.019 0.4 283 4.6 102630 51
2012-03-15 07:29:21 51°13.635 2°56.019 0.2 342 4.6 102620 52
2012-03-15 07:29:26 51°13.635 2°56.019 0.1 283 4.6 102620 52
2012-03-15 07:29:31 51°13.635 2°56.019 -999 341 4.6 102630 52
2012-03-15 07:29:36 51°13.635 2°56.019 0.1 280 4.6 102630 52
2012-03-15 07:29:41 51°13.635 2°56.019 0.1 336 4.6 102630 50
2012-03-15 07:29:46 51°13.635 2°56.019 1.3 335 4.6 102630 50
2012-03-15 07:29:51 51°13.635 2°56.019 0.5 338 4.6 102620 51
2012-03-15 07:29:56 51°13.635 2°56.019 0.5 283 4.6 102620 51
2012-03-15 07:30:01 51°13.635 2°56.019 0.1 336 4.6 102630 51
2012-03-15 07:30:06 51°13.635 2°56.019 0.1 283 4.6 102630 51
2012-03-15 07:30:11 51°13.635 2°56.019 0.1 338 4.6 102630 52
2012-03-15 07:30:16 51°13.635 2°56.019 1 340 4.6 102630 52
2012-03-15 07:30:21 51°13.635 2°56.019 1.1 337 4.6 102630 52
2012-03-15 07:30:25 51°13.635 2°56.019 0.6 283 4.6 102630 52
2012-03-15 07:30:31 51°13.635 2°56.019 0.4 339 4.6 102630 52
2012-03-15 07:30:36 51°13.635 2°56.019 0.3 288 4.6 102630 52
2012-03-15 07:30:41 51°13.636 2°56.019 1.3 337 4.6 102630 53
2012-03-15 07:30:46 51°13.635 2°56.019 1.1 283 4.6 102630 53
2012-03-15 07:30:51 51°13.635 2°56.019 1.2 344 4.6 102630 52
2012-03-15 07:30:56 51°13.636 2°56.019 1.6 342 4.6 102630 52
2012-03-15 07:31:01 51°13.635 2°56.019 1.6 342 4.6 102630 52
2012-03-15 07:31:06 51°13.635 2°56.019 1.5 284 4.6 102630 52
2012-03-15 07:31:11 51°13.635 2°56.019 1.5 344 4.6 102630 51
2012-03-15 07:31:16 51°13.635 2°56.019 1.1 283 4.6 102630 51
2012-03-15 07:31:21 51°13.635 2°56.019 1.1 345 4.6 102630 51
2012-03-15 07:31:26 51°13.635 2°56.019 0.5 283 4.6 102630 51
2012-03-15 07:31:31 51°13.635 2°56.019 0.5 333 4.6 102630 52
2012-03-15 07:31:36 51°13.635 2°56.019 0.4 283 4.6 102630 52
2012-03-15 07:31:41 51°13.635 2°56.019 0.5 340 4.6 102630 52
2012-03-15 07:31:46 51°13.635 2°56.019 1 328 4.6 102630 52
2012-03-15 07:31:51 51°13.635 2°56.019 1.3 334 4.6 102630 50
2012-03-15 07:31:56 51°13.636 2°56.019 1.6 278 4.6 102630 50
2012-03-15 07:32:01 51°13.635 2°56.019 1.9 335 4.6 102630 52
2012-03-15 07:32:06 51°13.635 2°56.019 1.3 345 4.6 102630 52
2012-03-15 07:32:11 51°13.635 2°56.019 1.6 342 4.6 102630 52
2012-03-15 07:32:16 51°13.635 2°56.019 2.3 285 4.6 102630 52
2012-03-15 07:32:21 51°13.635 2°56.019 1.8 340 4.6 102630 51
2012-03-15 07:32:26 51°13.636 2°56.019 1.9 338 4.6 102630 51
2012-03-15 07:32:31 51°13.635 2°56.019 1.1 336 4.6 102630 53
2012-03-15 07:32:36 51°13.635 2°56.019 1.2 285 4.6 102630 53
2012-03-15 07:32:41 51°13.636 2°56.019 1.6 337 4.7 102630 51
2012-03-15 07:32:46 51°13.635 2°56.019 0.8 279 4.7 102630 51
2012-03-15 07:32:51 51°13.635 2°56.019 0.6 338 4.7 102630 51
2012-03-15 07:32:56 51°13.635 2°56.019 0.5 335 4.7 102630 51
2012-03-15 07:33:01 51°13.635 2°56.019 0.2 333 4.7 102630 51
2012-03-15 07:33:06 51°13.635 2°56.019 0.1 283 4.7 102630 51
2012-03-15 07:33:11 51°13.635 2°56.019 -999 321 4.7 102630 51
2012-03-15 07:33:16 51°13.635 2°56.019 0.1 324 4.7 102630 51
2012-03-15 07:33:21 51°13.635 2°56.02 0.1 330 4.7 102630 52
2012-03-15 07:33:26 51°13.636 2°56.02 0.1 283 4.7 102630 52
2012-03-15 07:33:31 51°13.635 2°56.019 -999 332 4.7 102630 51
2012-03-15 07:33:36 51°13.635 2°56.02 0.1 288 4.7 102630 51
2012-03-15 07:33:41 51°13.635 2°56.019 0.1 342 4.7 102630 51
2012-03-15 07:33:46 51°13.635 2°56.019 0.1 347 4.7 102630 51
2012-03-15 07:33:51 51°13.635 2°56.019 0.3 345 4.7 102630 52
2012-03-15 07:33:56 51°13.635 2°56.019 0.3 278 4.7 102630 52
2012-03-15 07:34:01 51°13.635 2°56.019 1.1 348 4.7 102630 52
2012-03-15 07:34:06 51°13.635 2°56.019 1.9 342 4.7 102630 52
2012-03-15 07:34:11 51°13.635 2°56.019 1.7 349 4.7 102630 51
2012-03-15 07:34:16 51°13.635 2°56.019 1.4 345 4.7 102630 51
2012-03-15 07:34:21 51°13.635 2°56.019 2.2 348 4.7 102620 51
2012-03-15 07:34:25 51°13.634 2°56.018 2.1 282 4.7 102620 51
2012-03-15 07:34:31 51°13.634 2°56.018 0.6 342 4.7 102630 51
2012-03-15 07:34:36 51°13.634 2°56.018 0.7 354 4.7 102630 51
2012-03-15 07:34:41 51°13.634 2°56.018 0.9 350 4.7 102630 51
2012-03-15 07:34:46 51°13.635 2°56.018 1.5 351 4.7 102630 51
2012-03-15 07:34:51 51°13.636 2°56.017 1.7 351 4.7 102630 51
2012-03-15 07:34:56 51°13.635 2°56.015 1.7 358 4.7 102630 51
2012-03-15 07:35:01 51°13.636 2°56.012 1 -999 4.7 102630 51
2012-03-15 07:35:05 51°13.637 2°56.009 1.1 359 4.7 102630 51
2012-03-15 07:35:11 51°13.637 2°56.004 0.7 4 4.7 102630 51
2012-03-15 07:35:16 51°13.639 2°56 0.5 4 4.7 102630 51
2012-03-15 07:35:21 51°13.641 2°55.994 0.3 5 4.7 102620 51
2012-03-15 07:35:25 51°13.642 2°55.989 0.2 3 4.7 102620 51
2012-03-15 07:35:31 51°13.642 2°55.981 0.1 4 4.7 102620 51
2012-03-15 07:35:36 51°13.644 2°55.975 0.8 13 4.7 102620 51
2012-03-15 07:35:41 51°13.645 2°55.968 0.4 8 4.7 102630 51
2012-03-15 07:35:46 51°13.646 2°55.962 0.2 8 4.7 102630 51
2012-03-15 07:35:51 51°13.647 2°55.955 1.1 15 4.7 102630 51
2012-03-15 07:35:56 51°13.648 2°55.948 0.5 7 4.7 102630 51
2012-03-15 07:36:01 51°13.649 2°55.941 0.8 4 4.8 102630 51
2012-03-15 07:36:06 51°13.651 2°55.933 0.5 4 4.8 102630 51
2012-03-15 07:36:11 51°13.652 2°55.926 0.3 9 4.8 102630 51
2012-03-15 07:36:16 51°13.654 2°55.919 0.2 9 4.8 102630 51
2012-03-15 07:36:21 51°13.656 2°55.911 0.4 9 4.8 102630 51
2012-03-15 07:36:26 51°13.658 2°55.904 0.2 -999 4.8 102630 51
2012-03-15 07:36:31 51°13.66 2°55.896 0.1 9 4.8 102630 52
2012-03-15 07:36:36 51°13.662 2°55.888 0.1 9 4.8 102630 52
2012-03-15 07:36:41 51°13.665 2°55.88 -999 22 4.8 102630 51
2012-03-15 07:36:46 51°13.668 2°55.872 -999 31 4.8 102630 51
2012-03-15 07:36:51 51°13.671 2°55.863 -999 31 4.8 102630 51
2012-03-15 07:36:56 51°13.674 2°55.854 -999 35 4.8 102630 51
2012-03-15 07:37:01 51°13.678 2°55.845 -999 39 4.8 102620 51
2012-03-15 07:37:05 51°13.681 2°55.838 -999 39 4.8 102620 51
2012-03-15 07:37:11 51°13.686 2°55.827 -999 39 4.8 102630 50
2012-03-15 07:37:16 51°13.69 2°55.818 0.1 39 4.8 102630 50
2012-03-15 07:37:21 51°13.695 2°55.81 0.5 41 4.8 102630 51
2012-03-15 07:37:25 51°13.698 2°55.803 0.2 43 4.8 102630 51
2012-03-15 07:37:31 51°13.704 2°55.794 0.2 42 4.8 102630 51
2012-03-15 07:37:36 51°13.709 2°55.787 0.1 42 4.8 102630 51
2012-03-15 07:37:41 51°13.713 2°55.781 0.1 40 4.8 102630 50
2012-03-15 07:37:46 51°13.716 2°55.777 0.5 31 4.8 102630 50
2012-03-15 07:37:51 51°13.718 2°55.772 0.1 30 4.9 102630 51
2012-03-15 07:37:56 51°13.721 2°55.768 0.1 29 4.9 102630 51
2012-03-15 07:38:01 51°13.724 2°55.763 0.1 19 4.9 102630 51
2012-03-15 07:38:06 51°13.728 2°55.757 0.1 19 4.9 102630 51
2012-03-15 07:38:11 51°13.731 2°55.75 0.1 19 4.9 102630 51
2012-03-15 07:38:16 51°13.735 2°55.743 -999 19 4.9 102630 51
2012-03-15 07:38:21 51°13.74 2°55.735 -999 19 4.9 102630 51
2012-03-15 07:38:26 51°13.744 2°55.727 -999 19 4.9 102630 51
2012-03-15 07:38:31 51°13.749 2°55.72 -999 26 4.9 102630 52
2012-03-15 07:38:36 51°13.755 2°55.712 -999 29 4.9 102630 52
2012-03-15 07:38:41 51°13.76 2°55.704 0.1 29 4.9 102630 52
2012-03-15 07:38:46 51°13.766 2°55.696 0.3 52 4.9 102630 52
2012-03-15 07:38:51 51°13.773 2°55.688 0.4 22 4.9 102630 51
2012-03-15 07:38:56 51°13.779 2°55.681 0.3 73 4.9 102630 51
2012-03-15 07:39:01 51°13.786 2°55.674 0.2 20 4.9 102630 51
2012-03-15 07:39:06 51°13.793 2°55.667 0.2 58 4.9 102630 51
2012-03-15 07:39:11 51°13.8 2°55.66 0.2 22 4.9 102630 51
2012-03-15 07:39:16 51°13.808 2°55.654 0.1 49 4.9 102630 51
2012-03-15 07:39:21 51°13.816 2°55.648 0.1 26 4.9 102630 51
2012-03-15 07:39:25 51°13.822 2°55.644 0.1 -999 4.9 102630 51
2012-03-15 07:39:31 51°13.831 2°55.638 0.3 25 4.9 102630 51
2012-03-15 07:39:36 51°13.84 2°55.634 0.2 53 4.9 102630 51
2012-03-15 07:39:41 51°13.848 2°55.631 0.3 23 5 102630 51
2012-03-15 07:39:46 51°13.857 2°55.628 0.1 80 5 102630 51
2012-03-15 07:39:51 51°13.865 2°55.627 0.6 21 5 102630 50
2012-03-15 07:39:56 51°13.874 2°55.626 0.6 53 5 102630 50
2012-03-15 07:40:01 51°13.882 2°55.626 0.9 24 5 102630 52
2012-03-15 07:40:06 51°13.89 2°55.628 0.6 82 5 102630 52
2012-03-15 07:40:11 51°13.898 2°55.629 0.9 21 5 102630 52
2012-03-15 07:40:16 51°13.905 2°55.632 1 73 5 102630 52
2012-03-15 07:40:21 51°13.912 2°55.634 1.4 27 5 102630 51
2012-03-15 07:40:26 51°13.919 2°55.638 1.9 -999 5 102630 51
2012-03-15 07:40:31 51°13.926 2°55.641 1.7 27 5 102630 52
2012-03-15 07:40:36 51°13.932 2°55.645 1.2 75 5 102630 52
2012-03-15 07:40:41 51°13.938 2°55.649 1.6 20 5 102630 51
2012-03-15 07:40:46 51°13.943 2°55.652 1.1 51 5 102630 51
2012-03-15 07:40:51 51°13.948 2°55.657 1.6 20 5 102630 51
2012-03-15 07:40:56 51°13.953 2°55.661 1.3 78 5 102630 51
2012-03-15 07:41:01 51°13.958 2°55.665 1.2 22 5 102630 52
2012-03-15 07:41:06 51°13.961 2°55.668 2.3 299 5 102630 52
2012-03-15 07:41:11 51°13.964 2°55.671 1.3 260 5 102630 51
2012-03-15 07:41:16 51°13.966 2°55.673 1.3 283 5 102630 51
2012-03-15 07:41:21 51°13.968 2°55.675 1.5 265 5 102630 51
2012-03-15 07:41:25 51°13.969 2°55.676 1.3 284 5 102630 51
2012-03-15 07:41:31 51°13.97 2°55.676 1.1 264 5 102630 51
2012-03-15 07:41:36 51°13.971 2°55.675 2 302 5 102630 51
2012-03-15 07:41:41 51°13.971 2°55.674 1.7 262 5 102630 52
2012-03-15 07:41:45 51°13.971 2°55.673 1.7 305 5 102630 52
2012-03-15 07:41:51 51°13.972 2°55.67 1.9 261 5 102630 52
2012-03-15 07:41:56 51°13.972 2°55.667 0.7 304 5 102630 52
2012-03-15 07:42:01 51°13.972 2°55.664 0.7 264 5.1 102630 51
2012-03-15 07:42:06 51°13.973 2°55.66 0.6 285 5.1 102630 51
2012-03-15 07:42:10 51°13.973 2°55.657 1.2 262 5.1 102630 52
2012-03-15 07:42:16 51°13.974 2°55.651 1.2 307 5.1 102630 52
2012-03-15 07:42:21 51°13.976 2°55.646 1.3 31 5.1 102630 51
2012-03-15 07:42:26 51°13.977 2°55.64 0.7 287 5.1 102630 51
2012-03-15 07:42:31 51°13.98 2°55.635 0.1 269 5.1 102630 50
2012-03-15 07:42:36 51°13.983 2°55.628 0.1 283 5.1 102630 50
2012-03-15 07:42:41 51°13.986 2°55.621 0.1 269 5.1 102630 51
2012-03-15 07:42:46 51°13.99 2°55.614 -999 283 5.1 102630 51
2012-03-15 07:42:51 51°13.994 2°55.607 0.1 268 5.1 102630 51
2012-03-15 07:42:56 51°13.998 2°55.599 0.1 283 5.1 102630 51
2012-03-15 07:43:01 51°14.004 2°55.591 -999 268 5.1 102630 51
2012-03-15 07:43:06 51°14.009 2°55.583 -999 307 5.1 102630 51
2012-03-15 07:43:11 51°14.015 2°55.575 -999 268 5.1 102630 51
2012-03-15 07:43:16 51°14.021 2°55.566 -999 283 5.1 102630 51
2012-03-15 07:43:21 51°14.027 2°55.557 -999 267 5.1 102630 51
2012-03-15 07:43:25 51°14.033 2°55.55 -999 283 5.1 102630 51
2012-03-15 07:43:31 51°14.041 2°55.539 -999 267 5.1 102630 51
2012-03-15 07:43:36 51°14.049 2°55.53 -999 307 5.1 102630 51
2012-03-15 07:43:41 51°14.056 2°55.52 -999 263 5.2 102630 51
2012-03-15 07:43:45 51°14.063 2°55.513 -999 283 5.2 102630 51
2012-03-15 07:43:51 51°14.073 2°55.503 -999 23 5.2 102630 52
2012-03-15 07:43:56 51°14.082 2°55.494 -999 306 5.2 102630 52
2012-03-15 07:44:01 51°14.09 2°55.485 -999 318 5.2 102630 51
2012-03-15 07:44:06 51°14.099 2°55.475 -999 283 5.2 102630 51
2012-03-15 07:44:10 51°14.106 2°55.467 -999 323 5.2 102630 52
2012-03-15 07:44:16 51°14.117 2°55.456 -999 307 5.2 102630 52
2012-03-15 07:44:21 51°14.126 2°55.448 -999 322 5.2 102630 51
2012-03-15 07:44:26 51°14.136 2°55.44 -999 283 5.2 102630 51
2012-03-15 07:44:31 51°14.145 2°55.43 -999 321 5.2 102630 52
2012-03-15 07:44:36 51°14.154 2°55.42 0.1 307 5.2 102630 52
2012-03-15 07:44:41 51°14.164 2°55.411 0.1 321 5.2 102630 51
2012-03-15 07:44:46 51°14.174 2°55.403 0.1 283 5.2 102630 51
2012-03-15 07:44:51 51°14.184 2°55.392 -999 321 5.2 102630 50
2012-03-15 07:44:56 51°14.193 2°55.382 -999 283 5.2 102630 50
2012-03-15 07:45:01 51°14.202 2°55.372 -999 322 5.3 102630 51
2012-03-15 07:45:06 51°14.211 2°55.362 -999 306 5.3 102630 51
2012-03-15 07:45:10 51°14.219 2°55.354 -999 322 5.2 102630 50
2012-03-15 07:45:16 51°14.231 2°55.343 -999 283 5.2 102630 50
2012-03-15 07:45:21 51°14.241 2°55.333 -999 324 5.2 102630 51
2012-03-15 07:45:25 51°14.249 2°55.325 -999 283 5.2 102630 51
2012-03-15 07:45:31 51°14.261 2°55.313 -999 324 5.2 102630 51
2012-03-15 07:45:36 51°14.271 2°55.303 -999 283 5.2 102630 51
2012-03-15 07:45:41 51°14.281 2°55.293 -999 324 5.3 102630 50
2012-03-15 07:45:46 51°14.292 2°55.281 -999 283 5.3 102630 50
2012-03-15 07:45:51 51°14.303 2°55.271 -999 321 5.3 102630 51
2012-03-15 07:45:56 51°14.313 2°55.259 -999 283 5.3 102630 51
2012-03-15 07:46:01 51°14.324 2°55.248 -999 322 5.3 102630 51
2012-03-15 07:46:05 51°14.332 2°55.239 -999 283 5.3 102630 51
2012-03-15 07:46:11 51°14.345 2°55.225 -999 321 5.3 102630 51
2012-03-15 07:46:16 51°14.356 2°55.214 -999 283 5.3 102630 51
2012-03-15 07:46:21 51°14.367 2°55.203 -999 316 5.3 102630 51
2012-03-15 07:46:26 51°14.378 2°55.192 -999 283 5.3 102630 51
2012-03-15 07:46:31 51°14.389 2°55.181 -999 316 5.3 102630 51
2012-03-15 07:46:36 51°14.4 2°55.17 -999 283 5.3 102630 51
2012-03-15 07:46:41 51°14.412 2°55.159 -999 327 5.3 102630 51
2012-03-15 07:46:46 51°14.423 2°55.147 -999 283 5.3 102630 51
2012-03-15 07:46:51 51°14.435 2°55.136 -999 327 5.3 102630 51
2012-03-15 07:46:56 51°14.447 2°55.125 0.1 288 5.3 102630 51
2012-03-15 07:47:01 51°14.459 2°55.114 0.1 329 5.3 102630 51
2012-03-15 07:47:06 51°14.471 2°55.102 0.1 283 5.3 102630 51
2012-03-15 07:47:11 51°14.484 2°55.091 -999 330 5.3 102630 51
2012-03-15 07:47:16 51°14.496 2°55.08 -999 283 5.3 102630 51
2012-03-15 07:47:21 51°14.508 2°55.068 -999 330 5.3 102630 51
2012-03-15 07:47:25 51°14.519 2°55.059 -999 -999 5.3 102630 51
2012-03-15 07:47:30 51°14.531 2°55.047 -999 330 5.3 102630 51
2012-03-15 07:47:35 51°14.544 2°55.035 -999 283 5.3 102630 51
2012-03-15 07:47:40 51°14.557 2°55.022 0.1 330 5.3 102630 51
2012-03-15 07:47:45 51°14.57 2°55.01 0.1 283 5.3 102630 51
2012-03-15 07:47:49 51°14.581 2°55 0.1 330 5.3 102630 51
2012-03-15 07:47:55 51°14.596 2°54.984 0.1 283 5.3 102630 51
2012-03-15 07:47:59 51°14.607 2°54.973 0.1 326 5.3 102620 50
2012-03-15 07:48:04 51°14.619 2°54.959 0.2 283 5.3 102620 50
2012-03-15 07:48:09 51°14.632 2°54.945 0.1 326 5.3 102630 51
2012-03-15 07:48:14 51°14.645 2°54.931 0.1 283 5.3 102630 51
2012-03-15 07:48:19 51°14.658 2°54.917 0.1 325 5.3 102630 50
2012-03-15 07:48:24 51°14.67 2°54.903 0.1 -999 5.3 102630 50
2012-03-15 07:48:29 51°14.682 2°54.888 0.1 323 5.3 102630 51
2012-03-15 07:48:33 51°14.692 2°54.875 -999 283 5.3 102630 51
2012-03-15 07:48:38 51°14.705 2°54.86 0.1 322 5.3 102620 51
2012-03-15 07:48:43 51°14.717 2°54.844 0.1 282 5.3 102620 51
2012-03-15 07:48:48 51°14.73 2°54.829 0.1 330 5.3 102630 51
2012-03-15 07:48:53 51°14.743 2°54.815 0.2 284 5.3 102630 51
2012-03-15 07:48:57 51°14.754 2°54.803 1 336 5.4 102620 51
2012-03-15 07:49:03 51°14.77 2°54.785 1 283 5.4 102620 51
2012-03-15 07:49:07 51°14.781 2°54.773 0.7 337 5.3 102620 51
2012-03-15 07:49:12 51°14.794 2°54.757 0.3 284 5.3 102620 51
2012-03-15 07:49:17 51°14.808 2°54.742 1.6 332 5.4 102620 51
2012-03-15 07:49:22 51°14.823 2°54.726 1.6 288 5.4 102620 51
2012-03-15 07:49:27 51°14.837 2°54.711 2.3 334 5.4 102620 51
2012-03-15 07:49:32 51°14.852 2°54.696 2 283 5.4 102620 51
2012-03-15 07:49:37 51°14.866 2°54.68 1.5 330 5.4 102630 51
2012-03-15 07:49:42 51°14.881 2°54.664 1.6 283 5.4 102630 51
2012-03-15 07:49:47 51°14.896 2°54.648 1.3 329 5.4 102630 51
2012-03-15 07:49:52 51°14.911 2°54.633 1.6 279 5.4 102630 51
2012-03-15 07:49:57 51°14.926 2°54.616 1.8 330 5.4 102620 52
2012-03-15 07:50:02 51°14.94 2°54.599 2.2 283 5.4 102620 52
2012-03-15 07:50:07 51°14.954 2°54.581 1.8 329 5.4 102630 52
2012-03-15 07:50:13 51°14.972 2°54.56 2 283 5.4 102630 52
2012-03-15 07:50:17 51°14.983 2°54.546 1.9 330 5.4 102630 50
2012-03-15 07:50:22 51°14.997 2°54.528 2.4 -999 5.4 102630 50
2012-03-15 07:50:27 51°15.011 2°54.511 1.3 329 5.4 102630 51
2012-03-15 07:50:32 51°15.026 2°54.495 2.1 285 5.4 102630 51
2012-03-15 07:50:37 51°15.04 2°54.478 1.6 331 5.4 102620 52
2012-03-15 07:50:42 51°15.055 2°54.461 1.5 286 5.4 102620 52
2012-03-15 07:50:47 51°15.069 2°54.445 1.2 327 5.4 102630 51
2012-03-15 07:50:52 51°15.084 2°54.429 1.5 278 5.4 102630 51
2012-03-15 07:50:57 51°15.098 2°54.413 0.9 326 5.4 102630 50
2012-03-15 07:51:02 51°15.113 2°54.397 1 284 5.4 102630 50
2012-03-15 07:51:07 51°15.128 2°54.383 1.2 327 5.4 102630 51
2012-03-15 07:51:12 51°15.144 2°54.369 1 282 5.4 102630 51
2012-03-15 07:51:17 51°15.159 2°54.355 1.1 326 5.4 102630 51
2012-03-15 07:51:23 51°15.177 2°54.338 1.3 279 5.4 102630 51
2012-03-15 07:51:27 51°15.189 2°54.326 1.3 327 5.4 102630 51
2012-03-15 07:51:32 51°15.203 2°54.31 1.7 283 5.4 102630 51
2012-03-15 07:51:37 51°15.218 2°54.296 1.5 325 5.5 102630 51
2012-03-15 07:51:41 51°15.23 2°54.283 1.7 279 5.5 102630 51
2012-03-15 07:51:47 51°15.248 2°54.265 1.7 327 5.5 102630 51
2012-03-15 07:51:52 51°15.263 2°54.25 1.7 280 5.5 102630 51
2012-03-15 07:51:57 51°15.278 2°54.236 1.8 328 5.5 102630 51
2012-03-15 07:52:02 51°15.293 2°54.221 1.6 283 5.5 102630 51
2012-03-15 07:52:07 51°15.308 2°54.205 2.2 324 5.5 102630 51
2012-03-15 07:52:12 51°15.322 2°54.189 1.8 283 5.5 102630 51
2012-03-15 07:52:17 51°15.336 2°54.173 1.7 323 5.5 102630 52
2012-03-15 07:52:22 51°15.351 2°54.157 1.6 -999 5.5 102630 52
2012-03-15 07:52:27 51°15.364 2°54.139 2.2 317 5.5 102630 51
2012-03-15 07:52:32 51°15.377 2°54.121 2.3 278 5.5 102630 51
2012-03-15 07:52:37 51°15.39 2°54.102 2.2 322 5.5 102630 51
2012-03-15 07:52:42 51°15.403 2°54.083 2.1 278 5.5 102630 51
2012-03-15 07:52:47 51°15.416 2°54.065 2.2 321 5.5 102630 51
2012-03-15 07:52:53 51°15.432 2°54.043 2.2 281 5.5 102630 51
2012-03-15 07:52:57 51°15.442 2°54.027 2.9 320 5.5 102630 51
2012-03-15 07:53:02 51°15.454 2°54.008 2.8 287 5.5 102630 51
2012-03-15 07:53:07 51°15.467 2°53.989 2.2 321 5.5 102640 51
2012-03-15 07:53:13 51°15.483 2°53.967 2.4 284 5.5 102640 51
2012-03-15 07:53:17 51°15.493 2°53.952 2.5 320 5.5 102630 52
2012-03-15 07:53:22 51°15.506 2°53.934 3.3 284 5.5 102630 52
2012-03-15 07:53:27 51°15.52 2°53.916 2.6 323 5.5 102630 51
2012-03-15 07:53:32 51°15.533 2°53.897 2.4 287 5.5 102630 51
2012-03-15 07:53:37 51°15.547 2°53.879 2.5 325 5.6 102640 50
2012-03-15 07:53:41 51°15.558 2°53.866 2.9 286 5.6 102640 50
2012-03-15 07:53:47 51°15.575 2°53.846 3 329 5.6 102630 52
2012-03-15 07:53:52 51°15.59 2°53.831 3 281 5.6 102630 52
2012-03-15 07:53:57 51°15.605 2°53.815 2.9 330 5.6 102640 52
2012-03-15 07:54:02 51°15.62 2°53.799 2.8 285 5.6 102640 52
2012-03-15 07:54:07 51°15.635 2°53.784 2.9 327 5.6 102630 51
2012-03-15 07:54:12 51°15.65 2°53.768 3.3 285 5.6 102630 51
2012-03-15 07:54:17 51°15.665 2°53.753 2.7 325 5.6 102630 52
2012-03-15 07:54:22 51°15.68 2°53.738 2.8 -999 5.6 102630 52
2012-03-15 07:54:27 51°15.695 2°53.722 2.6 326 5.7 102630 52
2012-03-15 07:54:32 51°15.709 2°53.706 2.4 278 5.7 102630 52
2012-03-15 07:54:37 51°15.723 2°53.689 2.5 327 5.7 102630 52
2012-03-15 07:54:42 51°15.738 2°53.673 2.4 286 5.7 102630 52
2012-03-15 07:54:48 51°15.756 2°53.653 2.9 326 5.7 102640 51
2012-03-15 07:54:53 51°15.769 2°53.635 2.6 278 5.7 102640 51
2012-03-15 07:54:57 51°15.78 2°53.621 3.1 325 5.7 102640 52
2012-03-15 07:55:02 51°15.794 2°53.604 3.1 280 5.7 102640 52
2012-03-15 07:55:07 51°15.808 2°53.586 2.6 320 5.7 102640 52
2012-03-15 07:55:13 51°15.824 2°53.565 3.2 281 5.7 102640 52
2012-03-15 07:55:17 51°15.835 2°53.551 2.7 322 5.7 102630 53
2012-03-15 07:55:22 51°15.85 2°53.535 3.3 281 5.7 102630 53
2012-03-15 07:55:27 51°15.864 2°53.518 2.2 319 5.7 102630 51
2012-03-15 07:55:33 51°15.881 2°53.499 2.6 286 5.7 102630 51
2012-03-15 07:55:37 51°15.893 2°53.486 2.6 325 5.7 102630 51
2012-03-15 07:55:41 51°15.905 2°53.473 2.5 284 5.7 102630 51
2012-03-15 07:55:47 51°15.922 2°53.454 2.8 327 5.8 102630 53
2012-03-15 07:55:52 51°15.937 2°53.438 3.3 285 5.8 102630 53
2012-03-15 07:55:57 51°15.951 2°53.421 3 327 5.8 102630 51
2012-03-15 07:56:02 51°15.965 2°53.405 3.3 277 5.8 102630 51
2012-03-15 07:56:07 51°15.98 2°53.389 3.7 326 5.8 102630 53
2012-03-15 07:56:12 51°15.994 2°53.372 3 280 5.8 102630 53
2012-03-15 07:56:17 51°16.008 2°53.355 3.4 323 5.8 102630 50
2012-03-15 07:56:22 51°16.023 2°53.339 3.1 -999 5.8 102630 50
2012-03-15 07:56:27 51°16.036 2°53.322 2.8 322 5.8 102640 52
2012-03-15 07:56:32 51°16.05 2°53.304 2.3 284 5.8 102640 52
2012-03-15 07:56:37 51°16.064 2°53.286 2.7 320 5.8 102640 52
2012-03-15 07:56:42 51°16.078 2°53.269 2.6 282 5.8 102640 52
2012-03-15 07:56:47 51°16.091 2°53.25 2.8 321 5.8 102630 51
2012-03-15 07:56:53 51°16.107 2°53.228 3 286 5.8 102630 51
2012-03-15 07:56:57 51°16.118 2°53.214 3.5 320 5.9 102640 53
2012-03-15 07:57:02 51°16.131 2°53.195 2.7 284 5.9 102640 53
2012-03-15 07:57:07 51°16.145 2°53.176 2.5 323 5.9 102630 51
2012-03-15 07:57:12 51°16.158 2°53.158 3.2 284 5.9 102630 51
2012-03-15 07:57:17 51°16.171 2°53.139 2.7 322 5.9 102630 53
2012-03-15 07:57:22 51°16.185 2°53.121 2.9 286 5.9 102630 53
2012-03-15 07:57:27 51°16.199 2°53.104 3.4 322 5.9 102630 52
2012-03-15 07:57:32 51°16.213 2°53.087 3 284 5.9 102630 52
2012-03-15 07:57:37 51°16.228 2°53.071 3.2 325 5.9 102630 51
2012-03-15 07:57:42 51°16.243 2°53.055 1.9 280 5.9 102630 51
2012-03-15 07:57:47 51°16.257 2°53.04 2.7 326 5.9 102640 53
2012-03-15 07:57:53 51°16.275 2°53.022 3.1 284 5.9 102640 53
2012-03-15 07:57:57 51°16.288 2°53.011 3.5 327 5.9 102630 53
2012-03-15 07:58:02 51°16.303 2°52.997 2.8 281 5.9 102630 53
2012-03-15 07:58:07 51°16.318 2°52.983 2.6 326 6 102630 51
2012-03-15 07:58:12 51°16.334 2°52.969 2.6 284 6 102630 51
2012-03-15 07:58:17 51°16.35 2°52.956 2.6 329 6 102630 52
2012-03-15 07:58:22 51°16.365 2°52.941 3.3 -999 6 102630 52
2012-03-15 07:58:27 51°16.381 2°52.927 2.7 327 6 102630 51
2012-03-15 07:58:32 51°16.396 2°52.913 2.6 279 6 102630 51
2012-03-15 07:58:37 51°16.412 2°52.9 3 329 6 102630 51
2012-03-15 07:58:42 51°16.428 2°52.887 3.4 286 6 102630 51
2012-03-15 07:58:47 51°16.443 2°52.872 3.3 331 6 102630 51
2012-03-15 07:58:52 51°16.458 2°52.856 3.4 280 6 102630 51
2012-03-15 07:58:57 51°16.473 2°52.84 3.3 325 6 102640 52
2012-03-15 07:59:02 51°16.488 2°52.825 3 280 6 102640 52
2012-03-15 07:59:07 51°16.502 2°52.809 3.1 322 6 102640 51
2012-03-15 07:59:12 51°16.516 2°52.792 2.5 279 6 102640 51
2012-03-15 07:59:17 51°16.53 2°52.775 3.3 321 6 102630 52
2012-03-15 07:59:22 51°16.544 2°52.757 3.6 285 6 102630 52
2012-03-15 07:59:27 51°16.558 2°52.74 3.3 321 6 102630 52
2012-03-15 07:59:32 51°16.572 2°52.723 2.7 285 6 102630 52
2012-03-15 07:59:37 51°16.587 2°52.707 2.6 322 6.1 102630 52
2012-03-15 07:59:42 51°16.602 2°52.692 3.3 280 6.1 102630 52
2012-03-15 07:59:47 51°16.617 2°52.677 2.5 323 6.1 102630 52
2012-03-15 07:59:53 51°16.635 2°52.659 2.7 285 6.1 102630 52
2012-03-15 07:59:57 51°16.647 2°52.648 2 326 6.1 102630 52
2012-03-15 08:00:02 51°16.663 2°52.634 2.4 285 6.1 102630 52
2012-03-15 08:00:07 51°16.678 2°52.621 2.4 327 6.1 102630 52
2012-03-15 08:00:13 51°16.697 2°52.605 2.4 286 6.1 102630 52
2012-03-15 08:00:17 51°16.709 2°52.594 2.8 329 6.1 102640 51
2012-03-15 08:00:22 51°16.725 2°52.581 2.4 -999 6.1 102640 51
2012-03-15 08:00:27 51°16.741 2°52.569 2.1 325 6.1 102630 52
2012-03-15 08:00:32 51°16.756 2°52.555 2.6 285 6.1 102630 52
2012-03-15 08:00:37 51°16.771 2°52.541 2.4 324 6.1 102630 51
2012-03-15 08:00:41 51°16.783 2°52.529 2.7 286 6.1 102630 51
2012-03-15 08:00:47 51°16.802 2°52.512 3.1 326 6.1 102640 51
2012-03-15 08:00:52 51°16.817 2°52.498 3.1 286 6.1 102640 51
2012-03-15 08:00:57 51°16.832 2°52.484 3.5 329 6.1 102630 51
2012-03-15 08:01:02 51°16.847 2°52.469 2.8 286 6.1 102630 51
2012-03-15 08:01:07 51°16.862 2°52.456 2.7 327 6.1 102640 51
2012-03-15 08:01:12 51°16.878 2°52.442 3.4 283 6.1 102640 51
2012-03-15 08:01:17 51°16.893 2°52.428 3.1 327 6.1 102640 51
2012-03-15 08:01:22 51°16.908 2°52.415 2.9 282 6.1 102640 51
2012-03-15 08:01:27 51°16.923 2°52.401 3.2 329 6.1 102630 52
2012-03-15 08:01:32 51°16.939 2°52.388 3.3 279 6.1 102630 52
2012-03-15 08:01:37 51°16.955 2°52.374 3.6 330 6.1 102630 50
2012-03-15 08:01:42 51°16.97 2°52.36 3.5 285 6.1 102630 50
2012-03-15 08:01:48 51°16.988 2°52.344 3.8 328 6.2 102630 52
2012-03-15 08:01:53 51°17.004 2°52.329 3.6 284 6.2 102630 52
2012-03-15 08:01:57 51°17.016 2°52.319 3.9 330 6.2 102640 52
2012-03-15 08:02:02 51°17.031 2°52.303 3.9 286 6.2 102640 52
2012-03-15 08:02:07 51°17.046 2°52.287 3.9 328 6.2 102640 52
2012-03-15 08:02:13 51°17.062 2°52.266 3.3 280 6.2 102640 52
2012-03-15 08:02:17 51°17.073 2°52.253 4.1 326 6.2 102630 52
2012-03-15 08:02:22 51°17.087 2°52.235 3.1 -999 6.2 102630 52
2012-03-15 08:02:27 51°17.101 2°52.217 3 324 6.2 102630 51
2012-03-15 08:02:32 51°17.114 2°52.199 3.6 285 6.2 102630 51
2012-03-15 08:02:37 51°17.128 2°52.18 3.2 323 6.2 102640 51
2012-03-15 08:02:41 51°17.138 2°52.165 3.2 285 6.2 102640 51
2012-03-15 08:02:47 51°17.154 2°52.142 3.5 321 6.2 102630 51
2012-03-15 08:02:52 51°17.167 2°52.123 3.5 287 6.2 102630 51
2012-03-15 08:02:57 51°17.179 2°52.103 3.6 320 6.2 102630 52
2012-03-15 08:03:02 51°17.191 2°52.082 3.9 285 6.2 102630 52
2012-03-15 08:03:07 51°17.203 2°52.063 3.2 317 6.2 102640 52
2012-03-15 08:03:12 51°17.215 2°52.042 3.2 288 6.2 102640 52
2012-03-15 08:03:17 51°17.226 2°52.021 2.6 318 6.2 102630 51
2012-03-15 08:03:22 51°17.238 2°52 3.1 285 6.2 102630 51
2012-03-15 08:03:27 51°17.249 2°51.978 3 316 6.2 102630 51
2012-03-15 08:03:32 51°17.26 2°51.957 3 279 6.2 102630 51
2012-03-15 08:03:37 51°17.271 2°51.936 3.7 24 6.2 102630 51
2012-03-15 08:03:42 51°17.281 2°51.913 3.2 284 6.2 102630 51
2012-03-15 08:03:47 51°17.292 2°51.892 3.6 21 6.2 102630 51
2012-03-15 08:03:52 51°17.302 2°51.869 3.2 278 6.2 102630 51
2012-03-15 08:03:57 51°17.314 2°51.848 3 316 6.2 102630 52
2012-03-15 08:04:02 51°17.325 2°51.827 3.2 287 6.2 102630 52
2012-03-15 08:04:08 51°17.34 2°51.803 2.9 318 6.2 102630 51
2012-03-15 08:04:13 51°17.352 2°51.783 3.6 285 6.2 102630 51
2012-03-15 08:04:17 51°17.363 2°51.768 2.8 321 6.2 102630 50
2012-03-15 08:04:22 51°17.376 2°51.748 3.2 -999 6.2 102630 50
2012-03-15 08:04:27 51°17.389 2°51.729 3.2 324 6.2 102630 52
2012-03-15 08:04:33 51°17.405 2°51.707 3.5 286 6.2 102630 52
2012-03-15 08:04:37 51°17.416 2°51.693 3.1 324 6.2 102630 52
2012-03-15 08:04:42 51°17.43 2°51.675 3.3 279 6.2 102630 52
2012-03-15 08:04:47 51°17.445 2°51.659 3 323 6.2 102630 52
2012-03-15 08:04:52 51°17.459 2°51.641 2.9 285 6.2 102630 52
2012-03-15 08:04:57 51°17.473 2°51.624 3.5 324 6.2 102630 52
2012-03-15 08:05:02 51°17.486 2°51.606 3.2 280 6.2 102630 52
2012-03-15 08:05:07 51°17.5 2°51.588 3.2 323 6.2 102630 51
2012-03-15 08:05:12 51°17.514 2°51.571 3.1 278 6.2 102630 51
2012-03-15 08:05:17 51°17.527 2°51.553 3 322 6.2 102630 51
2012-03-15 08:05:22 51°17.541 2°51.535 2.7 281 6.2 102630 51
2012-03-15 08:05:27 51°17.555 2°51.517 2.7 323 6.2 102630 52
2012-03-15 08:05:32 51°17.569 2°51.5 3 284 6.2 102630 52
2012-03-15 08:05:37 51°17.583 2°51.483 2.9 324 6.2 102630 51
2012-03-15 08:05:42 51°17.598 2°51.468 2.5 285 6.2 102630 51
2012-03-15 08:05:47 51°17.613 2°51.452 2.9 325 6.2 102630 52
2012-03-15 08:05:52 51°17.628 2°51.437 3 281 6.2 102630 52
2012-03-15 08:05:57 51°17.643 2°51.423 2.3 327 6.2 102630 51
2012-03-15 08:06:02 51°17.658 2°51.409 2.2 281 6.2 102630 51
2012-03-15 08:06:08 51°17.677 2°51.392 2.4 327 6.2 102630 52
2012-03-15 08:06:13 51°17.693 2°51.378 2.6 287 6.2 102630 52
2012-03-15 08:06:17 51°17.705 2°51.366 2.3 327 6.2 102630 51
2012-03-15 08:06:22 51°17.72 2°51.352 2.2 -999 6.2 102630 51
2012-03-15 08:06:27 51°17.735 2°51.337 1.8 327 6.2 102630 52
2012-03-15 08:06:33 51°17.753 2°51.319 1.9 283 6.2 102630 52
2012-03-15 08:06:37 51°17.766 2°51.307 2.4 327 6.2 102630 50
2012-03-15 08:06:42 51°17.781 2°51.292 2.3 280 6.2 102630 50
2012-03-15 08:06:47 51°17.796 2°51.277 2 327 6.2 102630 52
2012-03-15 08:06:52 51°17.811 2°51.262 2.2 286 6.2 102630 52
2012-03-15 08:06:57 51°17.827 2°51.247 2.1 326 6.2 102630 50
2012-03-15 08:07:01 51°17.839 2°51.235 1.7 284 6.2 102630 50
2012-03-15 08:07:07 51°17.857 2°51.217 2 327 6.2 102630 51
2012-03-15 08:07:12 51°17.872 2°51.202 2 283 6.2 102630 51
2012-03-15 08:07:17 51°17.887 2°51.186 2.2 327 6.2 102630 51
2012-03-15 08:07:22 51°17.902 2°51.171 2 285 6.2 102630 51
2012-03-15 08:07:27 51°17.917 2°51.155 2 328 6.2 102630 51
2012-03-15 08:07:32 51°17.932 2°51.139 2 286 6.2 102630 51
2012-03-15 08:07:37 51°17.946 2°51.123 2.6 327 6.2 102630 51
2012-03-15 08:07:42 51°17.961 2°51.108 2.4 284 6.2 102630 51
2012-03-15 08:07:47 51°17.976 2°51.092 2.5 324 6.2 102630 51
2012-03-15 08:07:52 51°17.991 2°51.077 2.2 284 6.2 102630 51
2012-03-15 08:07:57 51°18.006 2°51.061 2.1 325 6.2 102630 51
2012-03-15 08:08:02 51°18.022 2°51.046 2.1 283 6.2 102630 51
2012-03-15 08:08:07 51°18.036 2°51.03 2.5 327 6.2 102630 52
2012-03-15 08:08:13 51°18.054 2°51.01 2.9 284 6.2 102630 52
2012-03-15 08:08:17 51°18.065 2°50.997 2.3 326 6.2 102630 50
2012-03-15 08:08:22 51°18.08 2°50.98 2.8 -999 6.2 102630 50
2012-03-15 08:08:27 51°18.095 2°50.964 2.7 327 6.2 102630 51
2012-03-15 08:08:32 51°18.109 2°50.947 2.4 287 6.2 102630 51
2012-03-15 08:08:37 51°18.123 2°50.93 2.6 325 6.2 102630 52
2012-03-15 08:08:42 51°18.137 2°50.912 2.1 280 6.2 102630 52
2012-03-15 08:08:47 51°18.15 2°50.893 2.2 322 6.2 102630 52
2012-03-15 08:08:53 51°18.166 2°50.871 2.7 285 6.2 102630 52
2012-03-15 08:08:57 51°18.177 2°50.856 3 324 6.2 102630 51
2012-03-15 08:09:01 51°18.188 2°50.841 2.6 285 6.2 102630 51
2012-03-15 08:09:07 51°18.204 2°50.818 2.9 324 6.2 102630 50
2012-03-15 08:09:12 51°18.217 2°50.8 2.7 286 6.2 102630 50
2012-03-15 08:09:17 51°18.23 2°50.78 2.4 322 6.2 102630 51
2012-03-15 08:09:22 51°18.243 2°50.761 2.8 286 6.2 102630 51
2012-03-15 08:09:27 51°18.256 2°50.742 2.9 322 6.2 102630 52
2012-03-15 08:09:32 51°18.27 2°50.723 2.7 280 6.2 102630 52
2012-03-15 08:09:37 51°18.283 2°50.704 3 322 6.2 102630 51
2012-03-15 08:09:42 51°18.297 2°50.686 2.8 286 6.2 102630 51
2012-03-15 08:09:47 51°18.31 2°50.668 2.8 325 6.2 102630 50
2012-03-15 08:09:52 51°18.324 2°50.65 2.7 286 6.2 102630 50
2012-03-15 08:09:57 51°18.339 2°50.633 2.6 327 6.2 102630 51
2012-03-15 08:10:02 51°18.354 2°50.617 2.8 286 6.2 102630 51
2012-03-15 08:10:07 51°18.369 2°50.601 2.7 329 6.2 102630 51
2012-03-15 08:10:13 51°18.387 2°50.583 2.6 282 6.2 102630 51
2012-03-15 08:10:17 51°18.399 2°50.57 2.8 330 6.2 102620 52
2012-03-15 08:10:22 51°18.414 2°50.555 3 286 6.2 102620 52
2012-03-15 08:10:27 51°18.429 2°50.54 2.9 328 6.2 102630 51
2012-03-15 08:10:32 51°18.444 2°50.525 2.7 281 6.2 102630 51
2012-03-15 08:10:37 51°18.459 2°50.509 2.7 328 6.2 102630 51
2012-03-15 08:10:42 51°18.474 2°50.493 2.5 282 6.2 102630 51
2012-03-15 08:10:47 51°18.489 2°50.478 2.8 330 6.2 102620 52
2012-03-15 08:10:52 51°18.503 2°50.463 2.6 284 6.2 102620 52
2012-03-15 08:10:57 51°18.518 2°50.446 2.5 328 6.2 102630 51
2012-03-15 08:11:02 51°18.533 2°50.43 2.5 286 6.2 102630 51
2012-03-15 08:11:07 51°18.548 2°50.415 2.6 327 6.2 102630 52
2012-03-15 08:11:13 51°18.565 2°50.396 2.5 281 6.2 102630 52
2012-03-15 08:11:17 51°18.577 2°50.383 2.3 327 6.2 102620 51
2012-03-15 08:11:22 51°18.591 2°50.366 2.1 280 6.2 102620 51
2012-03-15 08:11:27 51°18.606 2°50.35 2 325 6.2 102620 52
2012-03-15 08:11:32 51°18.621 2°50.334 2.1 278 6.2 102620 52
2012-03-15 08:11:37 51°18.636 2°50.318 2.1 326 6.2 102620 52
2012-03-15 08:11:42 51°18.651 2°50.302 2.4 285 6.2 102620 52
2012-03-15 08:11:47 51°18.665 2°50.285 2.2 327 6.2 102620 51
2012-03-15 08:11:52 51°18.68 2°50.268 2.6 285 6.2 102620 51
2012-03-15 08:11:57 51°18.694 2°50.252 2 325 6.2 102620 51
2012-03-15 08:12:02 51°18.709 2°50.234 2.6 284 6.2 102620 51
2012-03-15 08:12:07 51°18.723 2°50.217 2.9 325 6.2 102620 52
2012-03-15 08:12:12 51°18.738 2°50.2 2.2 279 6.2 102620 52
2012-03-15 08:12:17 51°18.751 2°50.182 2.2 325 6.2 102620 51
2012-03-15 08:12:22 51°18.765 2°50.165 2.5 278 6.2 102620 51
2012-03-15 08:12:27 51°18.78 2°50.147 2.2 323 6.2 102620 52
2012-03-15 08:12:32 51°18.794 2°50.129 2.8 287 6.2 102620 52
2012-03-15 08:12:37 51°18.807 2°50.11 2.8 325 6.2 102620 51
2012-03-15 08:12:42 51°18.821 2°50.092 2.7 279 6.2 102620 51
2012-03-15 08:12:47 51°18.835 2°50.073 2.8 324 6.2 102620 52
2012-03-15 08:12:52 51°18.849 2°50.055 2.6 285 6.2 102620 52
2012-03-15 08:12:57 51°18.863 2°50.038 2.3 322 6.2 102620 52
2012-03-15 08:13:02 51°18.877 2°50.02 2.9 286 6.2 102620 52
2012-03-15 08:13:07 51°18.891 2°50.002 2.7 322 6.2 102620 51
2012-03-15 08:13:13 51°18.908 2°49.981 3 280 6.2 102620 51
2012-03-15 08:13:17 51°18.92 2°49.967 2.7 324 6.2 102620 52
2012-03-15 08:13:22 51°18.934 2°49.95 2.8 286 6.2 102620 52
2012-03-15 08:13:27 51°18.948 2°49.933 2.7 322 6.2 102620 50
2012-03-15 08:13:33 51°18.966 2°49.913 2.7 281 6.2 102620 50
2012-03-15 08:13:37 51°18.978 2°49.899 3.5 326 6.2 102630 52
2012-03-15 08:13:42 51°18.992 2°49.883 2.9 280 6.2 102630 52
2012-03-15 08:13:47 51°19.007 2°49.868 3.6 325 6.2 102630 51
2012-03-15 08:13:52 51°19.022 2°49.853 2.9 280 6.2 102630 51
2012-03-15 08:13:57 51°19.038 2°49.838 2.1 327 6.2 102620 52
2012-03-15 08:14:01 51°19.05 2°49.826 2.6 282 6.2 102620 52
2012-03-15 08:14:07 51°19.069 2°49.81 2.4 328 6.2 102620 52
2012-03-15 08:14:12 51°19.084 2°49.796 2.5 281 6.2 102620 52
2012-03-15 08:14:17 51°19.1 2°49.782 2.4 326 6.2 102620 52
2012-03-15 08:14:22 51°19.116 2°49.768 2.2 280 6.2 102620 52
2012-03-15 08:14:27 51°19.132 2°49.754 2 324 6.2 102620 51
2012-03-15 08:14:32 51°19.147 2°49.74 2 285 6.2 102620 51
2012-03-15 08:14:37 51°19.163 2°49.726 2.5 327 6.2 102620 52
2012-03-15 08:14:42 51°19.179 2°49.712 2.3 281 6.2 102620 52
2012-03-15 08:14:47 51°19.194 2°49.697 2 325 6.2 102620 52
2012-03-15 08:14:52 51°19.209 2°49.682 2.6 283 6.2 102620 52
2012-03-15 08:14:57 51°19.225 2°49.668 2.8 327 6.2 102620 50
2012-03-15 08:15:02 51°19.241 2°49.654 2.6 281 6.2 102620 50
2012-03-15 08:15:08 51°19.259 2°49.636 2.4 324 6.2 102620 51
2012-03-15 08:15:13 51°19.274 2°49.622 2.3 280 6.2 102620 51
2012-03-15 08:15:17 51°19.287 2°49.61 2.4 326 6.2 102620 52
2012-03-15 08:15:22 51°19.302 2°49.594 2.5 284 6.2 102620 52
2012-03-15 08:15:27 51°19.316 2°49.578 2.2 324 6.2 102620 51
2012-03-15 08:15:33 51°19.334 2°49.559 2.7 279 6.2 102620 51
2012-03-15 08:15:37 51°19.346 2°49.546 3.1 323 6.2 102620 51
2012-03-15 08:15:42 51°19.36 2°49.529 2.7 281 6.2 102620 51
2012-03-15 08:15:47 51°19.374 2°49.512 2.9 322 6.2 102620 51
2012-03-15 08:15:52 51°19.389 2°49.495 2.8 280 6.2 102620 51
2012-03-15 08:15:57 51°19.403 2°49.478 2.5 323 6.2 102620 51
2012-03-15 08:16:01 51°19.415 2°49.464 2.8 287 6.2 102620 51
2012-03-15 08:16:07 51°19.432 2°49.444 3 327 6.2 102620 52
2012-03-15 08:16:12 51°19.447 2°49.427 2.8 281 6.2 102620 52
2012-03-15 08:16:17 51°19.461 2°49.411 2.2 326 6.2 102620 51
2012-03-15 08:16:22 51°19.476 2°49.395 3.3 278 6.2 102620 51
2012-03-15 08:16:27 51°19.491 2°49.379 2.8 325 6.2 102620 52
2012-03-15 08:16:32 51°19.506 2°49.362 3.2 285 6.2 102620 52
2012-03-15 08:16:37 51°19.521 2°49.346 3 327 6.2 102620 51
2012-03-15 08:16:42 51°19.536 2°49.33 3 286 6.2 102620 51
2012-03-15 08:16:47 51°19.551 2°49.315 3.1 327 6.2 102620 52
2012-03-15 08:16:52 51°19.566 2°49.299 3.4 282 6.2 102620 52
2012-03-15 08:16:57 51°19.581 2°49.284 2.9 327 6.2 102620 51
2012-03-15 08:17:02 51°19.596 2°49.269 2.7 280 6.2 102620 51
2012-03-15 08:17:07 51°19.612 2°49.254 3.2 329 6.2 102620 51
2012-03-15 08:17:13 51°19.631 2°49.236 3.2 287 6.2 102620 51
2012-03-15 08:17:17 51°19.643 2°49.225 2.7 328 6.3 102620 51
2012-03-15 08:17:22 51°19.659 2°49.211 3.3 279 6.3 102620 51
2012-03-15 08:17:27 51°19.675 2°49.197 2.9 328 6.3 102620 51
2012-03-15 08:17:32 51°19.691 2°49.184 3 282 6.3 102620 51
2012-03-15 08:17:37 51°19.707 2°49.17 2.8 328 6.3 102620 52
2012-03-15 08:17:42 51°19.723 2°49.156 3 286 6.3 102620 52
2012-03-15 08:17:47 51°19.739 2°49.141 3.3 328 6.3 102630 51
2012-03-15 08:17:52 51°19.754 2°49.127 3.1 284 6.3 102630 51
2012-03-15 08:17:57 51°19.77 2°49.112 2.7 328 6.3 102630 51
2012-03-15 08:18:02 51°19.785 2°49.097 2.6 280 6.3 102630 51
2012-03-15 08:18:07 51°19.8 2°49.081 3.1 328 6.3 102620 51
2012-03-15 08:18:12 51°19.816 2°49.067 3.1 286 6.3 102620 51
2012-03-15 08:18:17 51°19.831 2°49.051 3.2 329 6.3 102620 52
2012-03-15 08:18:22 51°19.847 2°49.036 2.6 286 6.3 102620 52
2012-03-15 08:18:27 51°19.862 2°49.02 2.9 327 6.3 102620 51
2012-03-15 08:18:32 51°19.877 2°49.004 2.5 285 6.3 102620 51
2012-03-15 08:18:37 51°19.892 2°48.987 2.8 326 6.3 102620 51
2012-03-15 08:18:42 51°19.907 2°48.971 3.1 284 6.3 102620 51
2012-03-15 08:18:47 51°19.922 2°48.954 2.8 326 6.3 102620 52
2012-03-15 08:18:52 51°19.937 2°48.938 2.6 286 6.3 102620 52
2012-03-15 08:18:57 51°19.952 2°48.922 3 325 6.3 102620 51
2012-03-15 08:19:02 51°19.967 2°48.907 2.9 280 6.3 102620 51